This demonstration page uses our WeatherBlox Daily Observations layout. Learn more.

Hourly Observations for June 18, 2016

Temp ( °F °C ) Dew Point ( °F °C ) Humidity (%) Winds ( mph kmh ) Pressure ( in mb ) Visibility ( mi km ) Precip ( " mm )
12:15 am 00:15 Clear 74 23.2 54 12 49 49 SSW 9 15 29.94 1014 10 16.09344 0 0
12:35 am 00:35 Clear 69 20.8 59 14.9 69 69 NNW 12 19 29.97 1015 10 16.09344 0 0
12:55 am 00:55 Clear 75 23.8 53 11.7 47 47 NNW 6 9 29.94 1014 10 16.09344 0 0
1:15 am 01:15 Clear 68 19.9 59 15 74 74 N 8 13 30 1016 10 16.09344 0 0
1:35 am 01:35 Clear 66 19.1 60 15.5 80 80 Calm 30.03 1017 10 16.09344 0 0
1:55 am 01:55 Clear 66 19 60 15.8 82 82 NNE 12 19 30.03 1017 10 16.09344 0 0
2:15 am 02:15 Clear 66 19 61 16 83 83 NNE 14 22 30.06 1018 10 16.09344 0 0
2:35 am 02:35 Clear 67 19.7 60 15.5 77 77 NE 14 22 30.09 1019 10 16.09344 0 0
2:55 am 02:55 Clear 68 20.1 61 16 77 77 NE 21 33 30.09 1019 10 16.09344 0 0
3:15 am 03:15 Partly Cloudy 66 19 62 16.6 86 86 NE 20 31 30.12 1020 10 16.09344 0 0
3:35 am 03:35 Cloudy with Light Rain 65 18.6 62 16.7 89 89 NE 24 39 30.09 1019 10 16.09344 0 0
3:55 am 03:55 Mostly Cloudy 65 18.2 62 16.4 89 89 NE 24 39 30.09 1019 10 16.09344 0 0
4:15 am 04:15 Partly Cloudy 64 18 61 16 88 88 ENE 18 30 30.09 1019 10 16.09344 0 0
4:35 am 04:35 Mostly Cloudy 64 18 61 15.9 88 88 ENE 18 30 30.09 1019 10 16.09344 0 0
4:55 am 04:55 Cloudy 64 18 60 15.8 87 87 ENE 17 28 30.09 1019 10 16.09344 0 0
5:15 am 05:15 Cloudy 64 18 61 15.9 88 88 ENE 13 20 30.09 1019 10 16.09344 0 0
5:35 am 05:35 Cloudy 65 18.1 60 15.8 87 87 ENE 15 24 30.09 1019 10 16.09344 0 0
5:55 am 05:55 Cloudy 65 18.3 61 16 87 87 E 17 28 30.12 1020 10 16.09344 0 0
6:15 am 06:15 Cloudy 65 18.3 61 16 87 87 E 18 30 30.09 1019 10 16.09344 0 0
6:35 am 06:35 Cloudy 65 18.3 61 16.1 87 87 E 12 19 30.09 1019 10 16.09344 0 0
6:55 am 06:55 Cloudy 65 18.3 61 16.2 88 88 E 10 17 30.09 1019 10 16.09344 0 0
7:15 am 07:15 Cloudy 65 18.5 62 16.5 88 88 ENE 6 9 30.09 1019 10 16.09344 0 0
7:35 am 07:35 Cloudy 65 18.6 62 16.6 88 88 E 6 9 30.06 1018 10 16.09344 0 0
7:55 am 07:55 Cloudy 66 19.1 63 17.1 88 88 ESE 8 13 30.06 1018 10 16.09344 0 0
8:15 am 08:15 Cloudy 67 19.7 63 17.3 86 86 SE 9 15 30.06 1018 10 16.09344 0 0
8:55 am 08:55 undefined 68 20.1 64 17.7 86 86 SE 3 6 30.09 1019 10 16.09344 0 0
9:15 am 09:15 Cloudy 69 20.6 64 17.9 85 85 Calm 30.12 1020 10 16.09344 0 0
9:35 am 09:35 Partly Cloudy 72 22 65 18.3 80 80 Calm 30.06 1018 10 16.09344 0 0
9:55 am 09:55 Partly Cloudy 72 22.3 65 18.4 79 79 S 5 7 30.06 1018 10 16.09344 0 0
10:15 am 10:15 Partly Cloudy 73 22.7 65 18.2 76 76 SSE 8 13 30.06 1018 10 16.09344 0 0
10:35 am 10:35 Partly Cloudy 74 23.3 66 18.8 76 76 S 8 13 30.06 1018 10 16.09344 0 0
10:55 am 10:55 Partly Cloudy 75 23.9 66 19 74 74 SSW 6 9 30.06 1018 10 16.09344 0 0
11:15 am 11:15 Partly Cloudy 76 24.4 67 19.5 74 74 SW 7 11 30.09 1019 10 16.09344 0 0
11:35 am 11:35 Partly Cloudy 77 24.9 67 19.7 73 73 WSW 5 7 30.09 1019 10 16.09344 0 0
11:55 am 11:55 Partly Cloudy 77 24.9 67 19.2 71 71 SW 3 6 30.09 1019 10 16.09344 0 0
12:15 pm 12:15 Partly Cloudy 78 25.3 66 19 68 68 S 3 6 30.06 1018 10 16.09344 0 0
12:35 pm 12:35 Sunny 78 25.7 66 18.8 66 66 SSW 3 6 30.06 1018 10 16.09344 0 0
12:55 pm 12:55 Sunny 79 26 66 18.8 65 65 W 3 6 30.06 1018 10 16.09344 0 0
1:15 pm 13:15 Partly Cloudy 80 26.6 67 19.3 64 64 WSW 3 6 30.06 1018 10 16.09344 0 0
1:35 pm 13:35 Partly Cloudy 81 27 64 18 58 58 Calm 30.06 1018 10 16.09344 0 0
1:55 pm 13:55 Partly Cloudy 81 27.2 65 18.1 58 58 Calm 30.06 1018 10 16.09344 0 0
2:15 pm 14:15 Sunny 82 27.5 65 18.2 57 57 Calm 30.06 1018 10 16.09344 0 0
2:35 pm 14:35 Sunny 82 27.7 65 18.3 57 57 Calm 30.06 1018 10 16.09344 0 0
2:55 pm 14:55 Sunny 80 26.9 64 17.7 57 57 Calm 30.06 1018 10 16.09344 0 0
3:15 pm 15:15 Sunny 82 27.9 65 18.3 56 56 Calm 30.03 1017 10 16.09344 0 0
3:35 pm 15:35 Sunny 83 28.2 66 18.9 57 57 Calm 30.03 1017 10 16.09344 0 0
3:55 pm 15:55 Sunny 83 28.5 65 18.2 54 54 E 5 7 30 1016 10 16.09344 0 0
4:15 pm 16:15 Sunny 83 28.6 65 18.2 53 53 NE 5 7 30 1016 10 16.09344 0 0
4:35 pm 16:35 Sunny 84 28.7 65 18.3 53 53 Calm 30 1016 10 16.09344 0 0
4:55 pm 16:55 Sunny 85 29.2 65 18.1 51 51 E 5 7 29.97 1015 10 16.09344 0 0
5:15 pm 17:15 Sunny 85 29.3 64 18 51 51 SSE 6 9 29.97 1015 10 16.09344 0 0
5:35 pm 17:35 Sunny 85 29.5 64 17.6 49 49 S 3 6 29.97 1015 10 16.09344 0 0
5:55 pm 17:55 Sunny 85 29.5 65 18.2 51 51 Calm 29.97 1015 10 16.09344 0 0
6:15 pm 18:15 Sunny 84 29.1 65 18.3 52 52 ENE 3 6 29.97 1015 10 16.09344 0 0
6:35 pm 18:35 Sunny 84 28.9 64 17.8 51 51 Calm 29.97 1015 10 16.09344 0 0
6:55 pm 18:55 Sunny 84 28.7 66 19.1 56 56 Calm 29.97 1015 10 16.09344 0 0
7:15 pm 19:15 Sunny 84 28.9 64 17.7 51 51 Calm 29.97 1015 10 16.09344 0 0
7:35 pm 19:35 Sunny 85 29.3 65 18.5 52 52 Calm 29.97 1015 10 16.09344 0 0
7:55 pm 19:55 Sunny 82 27.8 67 19.3 60 60 SSE 5 7 30 1016 10 16.09344 0 0
8:15 pm 20:15 Sunny 83 28.3 65 18.1 54 54 SSE 7 11 29.97 1015 10 16.09344 0 0
8:35 pm 20:35 Sunny 80 26.9 66 18.9 62 62 SSE 5 7 30 1016 10 16.09344 0 0
8:55 pm 20:55 Sunny 79 26.1 67 19.4 67 67 SSE 6 9 30 1016 10 16.09344 0 0
9:15 pm 21:15 Clear 78 25.7 67 19.4 68 68 SE 6 9 30 1016 10 16.09344 0 0
9:35 pm 21:35 Clear 77 25 68 20 74 74 SSE 7 11 30.03 1017 10 16.09344 0 0
9:55 pm 21:55 Clear 76 24.7 68 20 75 75 SSE 6 9 30.03 1017 10 16.09344 0 0
10:15 pm 22:15 Partly Cloudy 76 24.5 68 20.1 77 77 SSE 5 7 30.06 1018 10 16.09344 0 0
10:35 pm 22:35 Clear 76 24.5 68 19.9 76 76 SSE 7 11 30.06 1018 10 16.09344 0 0
10:55 pm 22:55 Clear 75 23.9 69 20.3 80 80 SSE 5 7 30.06 1018 10 16.09344 0 0
11:15 pm 23:15 Clear 75 24.1 69 20.5 80 80 SSE 6 9 30.06 1018 10 16.09344 0 0
11:35 pm 23:35 Clear 75 24 69 20.5 81 81 S 6 9 30.09 1019 10 16.09344 0 0
11:55 pm 23:55 Clear 75 23.7 69 20.3 81 81 S 8 13 30.06 1018 10 16.09344 0 0

Powered by AerisWeather